Stations météo

Publicité
Ploumanach, France (7117): Température de l'air & dewpoint: 26.03.2020 09:00:00 - 01.04.2020 09:00:00 (CEST)Ploumanach, France (7117): Vitesse du vent & gusts: 26.03.2020 09:00:00 - 01.04.2020 09:00:00 (CEST)Ploumanach, France (7117): Direction du vent: 26.03.2020 09:00:00 - 01.04.2020 09:00:00 (CEST)Ploumanach, France (7117): reduced air pressure: 26.03.2020 09:00:00 - 01.04.2020 09:00:00 (CEST)Ploumanach, France (7117): visibility: 26.03.2020 09:00:00 - 01.04.2020 09:00:00 (CEST)Ploumanach, France (7117): Quantités de précipitations: 26.03.2020 09:00:00 - 01.04.2020 09:00:00 (CEST)
Date & Time tt [°C] td [°C] ff [km/h] ff [knt] fx [km/h] fx [knt] dd ppp [hPa] vv [km] rr [mm]
01.04.2020 09:00:00 - - - - - - - - - -
01.04.2020 08:00:00 6,7 2,8 25 14 47 25 ENE 1023,1 12 0,0
01.04.2020 07:00:00 6,7 3,3 24 13 43 23 ENE 1023,3 - 0,0
01.04.2020 06:00:00 6,6 2,9 27 14 46 25 ENE 1023,2 - 0,0
01.04.2020 05:00:00 6,6 3,2 31 17 49 26 ENE 1023,6 - 0,0
01.04.2020 04:00:00 6,8 3,8 26 14 52 28 ENE 1024,0 - 0,0
01.04.2020 03:00:00 6,9 3,7 30 16 52 28 ENE 1024,4 - 0,0
01.04.2020 02:00:00 7,1 3,0 31 17 57 31 ENE 1024,7 - 0,0
01.04.2020 01:00:00 7,2 2,5 35 19 61 33 ENE 1024,8 - 0,0
01.04.2020 00:00:00 7,4 1,2 35 19 65 35 ENE 1025,0 - 0,0
31.03.2020 23:00:00 7,4 1,7 37 20 69 37 ENE 1024,9 - 0,0
31.03.2020 22:00:00 7,6 2,9 44 24 69 37 ENE 1024,9 - 0,0
31.03.2020 21:00:00 8,0 3,5 45 25 67 36 ENE 1024,9 - 0,0
31.03.2020 20:00:00 8,1 3,4 45 24 65 35 ENE 1024,8 15 0,0
31.03.2020 19:00:00 8,5 2,1 47 26 66 36 ENE 1024,8 - 0,0
31.03.2020 18:00:00 8,9 3,1 46 25 67 36 ENE 1024,8 - 0,0
31.03.2020 17:00:00 9,0 2,5 46 25 65 35 ENE 1025,0 15 0,0
31.03.2020 16:00:00 9,3 3,3 47 25 63 34 ENE 1025,6 - 0,0
31.03.2020 15:00:00 9,1 3,3 39 21 64 34 ENE 1026,1 - 0,0
31.03.2020 14:00:00 8,9 4,9 37 20 56 31 ENE 1026,8 15 0,0
31.03.2020 13:00:00 8,0 5,5 41 22 62 33 ENE 1027,2 - 0,0
31.03.2020 12:00:00 7,3 4,9 40 22 60 33 ENE 1027,5 - 0,2
31.03.2020 11:00:00 7,2 4,8 35 19 60 32 ENE 1027,7 8 0,0
31.03.2020 10:00:00 6,2 4,5 33 18 59 32 E 1027,7 - 0,6
31.03.2020 09:00:00 6,2 4,0 36 20 62 34 E 1027,4 - 0,0
31.03.2020 08:00:00 6,9 4,6 35 19 69 37 ENE 1026,8 10 0,4
31.03.2020 07:00:00 7,3 3,9 35 19 62 34 ENE 1026,3 - 0,0
31.03.2020 06:00:00 7,1 3,7 32 17 59 32 ENE 1026,6 - 0,0
31.03.2020 05:00:00 7,5 3,7 38 20 61 33 ENE 1026,5 - 0,0
31.03.2020 04:00:00 7,4 3,1 35 19 62 33 ENE 1027,0 - 0,0
31.03.2020 03:00:00 7,6 3,6 32 17 59 32 ENE 1027,5 - 0,0
31.03.2020 02:00:00 7,5 3,7 32 17 63 34 ENE 1028,2 - 0,0
31.03.2020 01:00:00 7,9 3,4 38 20 65 35 ENE 1028,1 - 0,0
31.03.2020 00:00:00 7,8 3,6 34 19 68 37 ENE 1028,5 - 0,0
30.03.2020 23:00:00 7,8 3,3 34 19 76 41 ENE 1028,4 - 0,0
30.03.2020 22:00:00 8,0 3,1 52 28 69 38 NE 1028,3 - 0,0
30.03.2020 21:00:00 7,7 2,0 49 26 69 38 ENE 1028,1 - 0,0
30.03.2020 20:00:00 7,5 2,4 55 30 72 39 NE 1028,0 - 0,0
30.03.2020 19:00:00 7,6 2,5 49 26 66 35 NE 1028,2 - 0,0
30.03.2020 18:00:00 7,2 1,9 45 24 71 38 NE 1028,9 - 0,0
30.03.2020 17:00:00 7,5 0,7 52 28 69 37 NE 1029,2 25 0,0
30.03.2020 16:00:00 7,7 0,9 52 28 71 39 NE 1029,7 - 0,0
30.03.2020 15:00:00 6,9 0,8 53 28 73 39 NE 1030,6 - 0,0
30.03.2020 14:00:00 6,9 -0,8 54 29 68 37 NE 1031,1 10 0,0
30.03.2020 13:00:00 6,6 0,1 54 29 67 36 NE 1031,7 - 0,0
30.03.2020 12:00:00 6,2 -0,5 48 26 74 40 ENE 1032,5 - 0,0
30.03.2020 11:00:00 6,1 -0,4 49 27 75 41 NE 1033,0 10 0,0
30.03.2020 10:00:00 6,0 -1,9 51 28 72 39 NE 1033,1 - 0,0
30.03.2020 09:00:00 5,8 0,1 51 28 75 40 NE 1033,3 - 0,0
30.03.2020 08:00:00 5,9 -1,7 54 29 78 42 NE 1032,9 6 0,0
30.03.2020 07:00:00 5,8 -1,6 54 29 74 40 NE 1033,1 - 0,0
30.03.2020 06:00:00 5,6 -2,7 54 29 76 41 NE 1033,3 - 0,0
30.03.2020 05:00:00 5,8 -0,9 53 29 79 43 NE 1033,9 - 0,0
30.03.2020 04:00:00 5,8 -1,4 56 30 83 45 NE 1034,2 - 0,0
30.03.2020 03:00:00 5,8 -2,1 59 32 81 44 NE 1034,6 - 0,0
30.03.2020 02:00:00 6,3 -2,1 58 32 86 47 NE 1034,9 - 0,0
30.03.2020 01:00:00 6,4 -0,1 56 31 86 47 ENE 1035,2 - 0,0
30.03.2020 00:00:00 6,9 0,6 57 31 83 45 ENE 1034,9 - 0,0
29.03.2020 23:00:00 6,9 -1,3 63 34 90 49 NE 1034,7 - 0,0
29.03.2020 22:00:00 6,9 -0,3 62 34 90 48 NE 1034,9 - 0,0
29.03.2020 21:00:00 6,8 1,1 63 34 87 47 NE 1034,9 - 0,0
29.03.2020 20:00:00 7,0 0,2 61 33 94 51 NE 1034,1 8 0,0
29.03.2020 19:00:00 6,8 1,1 60 32 94 51 NE 1034,0 - 0,0
29.03.2020 18:00:00 6,8 2,3 67 36 100 54 ENE 1032,9 - 0,0
29.03.2020 17:00:00 8,4 0,8 61 33 89 48 NE 1033,2 8 0,0
29.03.2020 16:00:00 7,4 0,1 59 32 86 47 NE 1033,3 - 0,0
29.03.2020 15:00:00 7,1 0,1 61 33 84 45 NE 1033,7 - 0,0
29.03.2020 14:00:00 6,8 -0,7 61 33 87 47 NE 1033,3 6 0,0
29.03.2020 13:00:00 6,4 -0,6 61 33 85 46 NE 1033,7 - 0,0
29.03.2020 12:00:00 6,5 -0,5 62 34 90 48 NE 1033,4 - 0,0
29.03.2020 11:00:00 6,5 -0,3 56 30 86 47 ENE 1033,2 6 0,0
29.03.2020 10:00:00 6,5 -0,9 64 35 85 46 NE 1032,7 - 0,0
29.03.2020 09:00:00 6,9 1,2 63 34 91 49 NE 1032,1 - 0,0
29.03.2020 08:00:00 6,9 1,0 66 35 88 48 NE 1031,2 6 0,0
29.03.2020 07:00:00 7,2 2,1 66 35 86 46 NE 1030,3 - 0,0
29.03.2020 06:00:00 7,5 3,0 61 33 83 45 NE 1030,1 - 0,0
29.03.2020 05:00:00 7,5 1,3 59 32 79 43 ENE 1030,0 - 0,0
29.03.2020 04:00:00 7,8 2,5 56 31 85 46 ENE 1030,1 - 0,0
29.03.2020 03:00:00 8,3 3,9 61 33 79 43 NE 1029,4 - 0,0
29.03.2020 02:00:00 8,5 3,3 51 28 88 48 ENE 1029,2 - 0,0
29.03.2020 01:00:00 9,0 3,4 57 31 83 45 ENE 1028,4 - 0,0
29.03.2020 00:00:00 8,9 3,5 54 29 81 44 ENE 1028,0 - 0,0
28.03.2020 23:00:00 9,1 4,5 58 31 85 46 ENE 1027,6 - 0,0
28.03.2020 22:00:00 9,3 5,7 54 29 77 42 ENE 1026,8 - 0,0
28.03.2020 21:00:00 9,6 5,0 51 28 77 41 ENE 1025,9 - 0,0
28.03.2020 20:00:00 9,9 4,7 50 27 67 36 NE 1025,3 - 0,0
28.03.2020 19:00:00 10,1 5,7 44 24 58 31 NE 1024,7 - 0,0
28.03.2020 18:00:00 9,5 5,9 37 20 56 30 NE 1024,7 - 0,0
28.03.2020 17:00:00 9,0 6,1 45 24 60 32 NE 1024,4 5 0,0
28.03.2020 16:00:00 8,4 6,0 41 22 55 30 NE 1024,8 - 0,0
28.03.2020 15:00:00 8,4 5,7 43 23 54 29 NE 1024,8 - 0,0
28.03.2020 14:00:00 8,2 5,7 35 19 47 26 NE 1024,7 - 0,0
28.03.2020 13:00:00 8,2 5,5 32 18 45 24 NE 1024,8 - 0,0
28.03.2020 12:00:00 8,3 5,4 33 18 48 26 ENE 1024,5 - 0,0
28.03.2020 11:00:00 8,2 5,3 32 17 48 26 ENE 1024,3 5 0,0
28.03.2020 10:00:00 8,0 4,6 34 19 46 25 NE 1023,8 - 0,0
28.03.2020 09:00:00 8,1 4,3 35 19 48 26 NE 1023,4 - 0,0
28.03.2020 08:00:00 8,2 4,4 34 19 44 24 NE 1022,8 3,0 0,0
28.03.2020 07:00:00 8,4 4,2 37 20 48 26 NE 1022,3 - 0,0
28.03.2020 06:00:00 8,4 4,8 39 21 53 28 NE 1022,0 - 0,0
28.03.2020 05:00:00 8,7 4,5 27 15 41 22 ENE 1021,9 - 0,0
28.03.2020 04:00:00 8,8 4,4 24 13 49 26 ENE 1022,0 - 0,0
28.03.2020 03:00:00 9,3 4,3 35 19 45 24 NE 1022,1 - 0,0
28.03.2020 02:00:00 9,4 5,0 29 16 38 20 NE 1022,1 - 0,0
28.03.2020 01:00:00 9,3 5,1 26 14 34 19 NE 1022,3 - 0,0
28.03.2020 00:00:00 9,1 4,7 24 13 35 19 NNE 1022,4 - 0,0
27.03.2020 23:00:00 8,9 5,1 24 13 34 18 NNE 1022,3 - 0,0
27.03.2020 22:00:00 9,0 5,4 26 14 35 19 NE 1022,3 - 0,0
27.03.2020 21:00:00 8,8 5,5 23 13 42 23 ENE 1021,8 - 0,0
27.03.2020 20:00:00 8,8 5,2 32 17 43 23 NE 1021,3 - 0,0
27.03.2020 19:00:00 9,3 5,8 30 16 39 21 NE 1020,8 - 0,0
27.03.2020 18:00:00 9,8 5,8 29 16 42 23 NE 1020,6 - 0,0
27.03.2020 17:00:00 10,0 5,4 33 18 43 23 NE 1020,9 8 0,0
27.03.2020 16:00:00 10,4 6,2 31 17 39 21 NE 1021,1 - 0,0
27.03.2020 15:00:00 10,4 5,4 29 15 38 20 ENE 1021,3 - 0,0
27.03.2020 14:00:00 10,4 6,3 28 15 37 20 ENE 1021,6 8 0,0
27.03.2020 13:00:00 10,3 5,7 26 14 37 20 ENE 1021,8 - 0,0
27.03.2020 12:00:00 10,3 5,5 24 13 36 19 ENE 1021,8 - 0,0
27.03.2020 11:00:00 9,7 5,1 26 14 35 19 ENE 1021,6 8 0,0
27.03.2020 10:00:00 8,9 4,9 26 14 39 21 ENE 1021,2 - 0,0
27.03.2020 09:00:00 8,4 5,1 24 13 40 21 ENE 1020,8 - 0,0
27.03.2020 08:00:00 7,9 5,2 23 12 36 19 ENE 1020,7 8 0,0
27.03.2020 07:00:00 7,7 4,6 24 13 37 20 ENE 1020,2 - 0,0
27.03.2020 06:00:00 7,6 4,9 16 9 35 19 ENE 1020,0 - 0,0
27.03.2020 05:00:00 7,4 4,7 21 12 34 18 ENE 1020,1 - 0,0
27.03.2020 04:00:00 7,0 4,6 13 7 27 15 E 1020,6 - 0,0
27.03.2020 03:00:00 6,9 4,2 14 8 26 14 E 1020,7 - 0,0
27.03.2020 02:00:00 7,0 3,4 14 8 35 19 E 1020,7 - 0,0
27.03.2020 01:00:00 7,7 3,0 20 11 41 22 ENE 1020,7 - 0,0
27.03.2020 00:00:00 8,0 2,9 24 13 44 24 ENE 1020,7 - 0,0
26.03.2020 23:00:00 8,0 2,7 26 14 49 27 ENE 1020,4 - 0,0
26.03.2020 22:00:00 8,5 1,2 32 17 51 28 ENE 1020,2 - 0,0
26.03.2020 21:00:00 8,4 1,5 31 17 53 29 ENE 1019,5 - 0,0
26.03.2020 20:00:00 8,9 2,5 38 21 57 31 NE 1019,0 12 0,0
26.03.2020 19:00:00 9,1 2,4 41 22 53 29 NE 1019,0 - 0,0
26.03.2020 18:00:00 9,5 3,9 39 21 51 28 NE 1018,9 - 0,0
26.03.2020 17:00:00 9,8 5,0 36 19 47 26 NE 1019,0 12 0,0
26.03.2020 16:00:00 10,4 5,6 28 15 39 21 NE 1019,5 - 0,0
26.03.2020 15:00:00 10,8 5,7 29 16 40 22 NE 1019,9 - 0,0
26.03.2020 14:00:00 11,0 4,0 26 14 35 19 NE 1020,3 12 0,0
26.03.2020 13:00:00 10,8 3,8 26 14 36 19 ENE 1020,5 - 0,0
26.03.2020 12:00:00 10,4 4,5 24 13 35 19 ENE 1020,4 - 0,0
26.03.2020 11:00:00 10,0 4,4 24 13 38 21 ENE 1020,2 - 0,0
26.03.2020 10:00:00 9,4 4,0 24 13 33 18 NE 1019,8 - 0,0
26.03.2020 09:00:00 - - - - - - - - - -

tt = Température de l'air
td = dewpoint
ff = Vitesse du vent
fx = gusts
dd = Direction du vent
ppp = reduced air pressure
vv = visibility
rr = Quantités de précipitations

stations d'obs. à proximité